Regional Weather Roundup
Issued by NWS

Home | Current Version | Previous Version | Text Only | Print | Product List | Glossary On
Versions: 1 2 3 4 5 6 7 8 9 10 11 12 13 14 15 16 17 18 19 20 21 22 23 24 25 26 27 28 29 30 31 32 33 34 35 36 37 38 39 40 41 42 43 44 45 46 47 48 49 50
000
ASUS43 KDTX 291501
RWRMI
MICHIGAN HOURLY REGIONAL WEATHER ROUNDUP
NATIONAL WEATHER SERVICE DETROIT/PONTIAC MI
1100 AM EDT WED JUL 29 2015

NOTE: "FAIR" INDICATES FEW OR NO CLOUDS BELOW 12,000 FEET WITH NO
SIGNIFICANT WEATHER AND/OR OBSTRUCTION TO VISIBILITY.

MIZ047>049-052>055-059>063-066>070-074>076-081>083-291600-
SOUTHEAST LOWER MICHIGAN

CITY           SKY/WX    TMP DP  RH WIND       PRES   REMARKS
ADRIAN         MOSUNNY   84  72  67 SW7       29.96F
ALMA           MOSUNNY   82  72  71 SW5       29.91F
ANN ARBOR      PTSUNNY   84  72  67 SW9       29.95F
BAD AXE        MOSUNNY   83  67  58 S12       29.93F
CARO           PTSUNNY   83  69  62 SW9       29.92F
DETROIT CITY   PTSUNNY   85  68  56 S8        29.95F
DETROIT        PTSUNNY   85  70  60 VRB6      29.95F
FLINT          PTSUNNY   85  70  60 SW9       29.94F
GROSSE ILE     MOSUNNY   81  73  78 S6        29.94F
HILLSDALE      MOSUNNY   84  76  76 SW3       29.96F HX  93
HOWELL         PTSUNNY   83  71  67 SW5       29.95S

CITY           SKY/WX    TMP DP  RH WIND       PRES   REMARKS
JACKSON        CLOUDY    82  73  74 SW6       29.95S
LAMBERTVILLE   MOSUNNY   85  71  62 SW5       29.96F HX  91
LANSING        PTSUNNY   81  71  71 W7        29.93F
LAPEER         FAIR      85  67  56 S8        29.94F
MASON          PTSUNNY   80  71  73 SW6       29.94F
MONROE         MOSUNNY   83  73  71 S5        29.94F HX  90
MT. CLEMENS    CLOUDY    83  73  71 SE5       29.94F
PONTIAC        CLOUDY    83  68  60 S6        29.95F
PORT HOPE        N/A     84  65  52 VRB7      29.90F
PORT HURON     PTSUNNY   81  70  69 S8        29.95F
TRI CITIES     MOSUNNY   82  69  64 SW9       29.91F
MIDLAND        FAIR      81  68  64 S5        29.89F
TROY           PTSUNNY   85  68  55 SW5       29.96F
SAGINAW HB     PTSUNNY   79  70  73 S7        29.91F
$$
MIZ043>046-050>051-056>058-064>065-071>073-077>080-291600-
SOUTHWEST LOWER MICHIGAN

CITY           SKY/WX    TMP DP  RH WIND       PRES   REMARKS
BATTLE CREEK   PTSUNNY   82  72  71 W7        29.95F
BENTON HARBOR  CLOUDY    78  72  81 W12       29.95S
BIG RAPIDS     PTSUNNY   81  72  73 W8        29.90S
COLDWATER      PTSUNNY   84  73  69 W6        29.95S
FREMONT        CLOUDY    78  74  86 W9        29.91S
HOLLAND        CLOUDY    80  73  79 W13       29.94R
GRAND RAPIDS   CLOUDY    83  73  72 W12       29.92F
IONIA          PTSUNNY   83  72  69 W7        29.91F
KALAMAZOO      PTSUNNY   84  72  67 NW9       29.94F
LUDINGTON      CLOUDY    76  70  81 W5        29.92R
MARSHALL       PTSUNNY   83  72  70 SW5       29.94S
MOUNT PLEASANT MOSUNNY   89  69  51 S7        29.89  HX  93
MUSKEGON       CLOUDY    77  71  82 W10       29.93R
SOUTH HAVEN    CLOUDY    78  71  80 W10       29.95R
$$
MIZ016>042-291600-
NORTHERN LOWER MICHIGAN

CITY           SKY/WX    TMP DP  RH WIND       PRES   REMARKS
ALPENA         PTSUNNY   87  65  47 S13       29.87F
BEAVER ISLAND  CLOUDY    75  67  77 SW14G21   29.82F
BELLAIRE       CLOUDY    78  71  79 W5        29.86S
CADILLAC       CLOUDY    79  71  77 W6        29.91S
CHARLEVOIX     CLOUDY    76  70  81 SW9       29.88S
FRANKFORT      CLOUDY    75  68  79 W5        29.88S
GAYLORD        PTSUNNY   81  70  69 SW14      29.89F
GRAYLING       PTSUNNY   81  70  69 S6        29.89F
HARBOR SPRINGS CLOUDY    76  71  82 SW7       29.84F
HOUGHTON LAKE  MOSUNNY   81  70  69 SW6       29.90F
MANISTEE       CLOUDY    75  66  73 W7        29.90S
OSCODA         PTSUNNY   84  66  54 S13       29.89F
PELLSTON       CLOUDY    79  70  74 VRB6G18   29.84F
ROGERS CITY    PTSUNNY   84  69  61 SW9G16    29.85F
TRAVERSE CITY  CLOUDY    78  68  71 W9        29.86S
$$
MIZ007>008-015-291600-
EASTERN UPPER MICHIGAN

CITY           SKY/WX    TMP DP  RH WIND       PRES   REMARKS
KINROSS        CLOUDY    79  70  73 SW6       29.82S
MACKINAC ISLAN CLOUDY    77  69  77 SW7G20    29.82F
MUNISING         N/A     80  55  42 SW8G17    29.75F
$$
MIZ004>006-011>014-085-291600-
CENTRAL UPPER MICHIGAN

CITY           SKY/WX    TMP DP  RH WIND       PRES   REMARKS
ESCANABA       MOSUNNY   79  50  36 W18G26    29.78F
MENOMINEE      PTSUNNY   75  55  50 W7G18     29.83F
SAWYER-GWINN   SUNNY     77  48  36 SW22G29   29.78F
$$
MIZ001>003-009>011-084-291600-
WESTERN UPPER MICHIGAN

CITY           SKY/WX    TMP DP  RH WIND       PRES   REMARKS
IRON MOUNTAIN  SUNNY     77  49  37 W16G24    29.80F
HOUGHTON       PTSUNNY   72  52  49 W29G41    29.72R
IRONWOOD       MOSUNNY   70  54  56 SW23G32   29.74F
$$

ABBREVIATIONS USED IN REMARKS
   TC - TEMPERATURE IN CELSIUS
  WCI - WIND CHILL INDEX
   HX - HEAT INDEX
  VSB - VISIBILITY




USA.gov is the U.S. government's official web portal to all federal, state and local government web resources and services.